Tracking 20040 objects as of 18-Nov-2019
Live streaming from Space Station
objects crossing your sky now

SL-14 DEB

Track SL-14 DEB now!
10-day predictions


NORAD ID: 26029
Int'l Code: 1991-068AQ
Perigee: 1,414.8 km
Apogee: 1,476.3 km
Inclination: 82.6 °
Period: 114.6 minutes
Semi major axis: 7816 km
RCS: 0.0153 m2 (small)
Launch date: September 28, 1991
Source: Commonwealth of Independent States (former USSR) (CIS)
Launch site: PLESETSK MISSILE AND SPACE COMPLEX (PKMTR)

Note: This is SATELLITE DEBRIS
aabbcc
Your satellite tracking list
Your tracking list is empty




NASA's NSSDC Master Catalog

Two Line Element Set (TLE):
1 26029U 91068AQ  19321.47555736 +.00000017 +00000-0 +39178-4 0  9991
2 26029 082.5686 140.5572 0039371 003.3485 024.4444 12.56260344941634
Source of the keplerian elements: AFSPC